Regional Weather Roundup
Issued by NWS

Home | Current Version | Previous Version | Text Only | Print | Product List | Glossary On
Versions: 1 2 3 4 5 6 7 8 9 10 11 12 13 14 15 16 17 18 19 20 21 22 23 24 25 26 27 28 29 30 31 32 33 34 35 36 37 38 39 40 41 42 43 44 45 46 47 48 49 50
000
ASUS43 KDTX 161610
RWRMI
MICHIGAN HOURLY REGIONAL WEATHER ROUNDUP
NATIONAL WEATHER SERVICE DETROIT/PONTIAC MI
1200 PM EDT WED AUG 16 2017

NOTE: "FAIR" INDICATES FEW OR NO CLOUDS BELOW 12,000 FEET WITH NO
SIGNIFICANT WEATHER AND/OR OBSTRUCTION TO VISIBILITY.

MIZ047>049-052>055-059>063-066>070-074>076-081>083-161700-
SOUTHEAST LOWER MICHIGAN

CITY           SKY/WX    TMP DP  RH WIND       PRES   REMARKS
ADRIAN         MOSUNNY   81  64  56 S9        30.08S
ALMA           CLOUDY    75  59  57 E8        30.08F
ANN ARBOR      SUNNY     79  55  43 SE8       30.08S
BAD AXE        SUNNY     75  55  49 CALM      30.11S
CARO           SUNNY     77  58  51 E6        30.09S
DETROIT CITY   PTSUNNY   74  56  53 E7        30.09S
DETROIT        PTSUNNY   78  55  44 VRB7      30.09S
FLINT          PTSUNNY   76  59  55 SE7       30.08F
GROSSE ILE     MOSUNNY   78  57  49 S7        30.08S
HILLSDALE      PTSUNNY   79  63  57 SE9       30.07S
HOWELL         SUNNY     78  57  47 SE10      30.09S

CITY           SKY/WX    TMP DP  RH WIND       PRES   REMARKS
JACKSON          N/A    N/A N/A N/A MISG      30.07F
LAMBERTVILLE   SUNNY     80  65  59 E7        30.07S
LANSING        SUNNY     78  64  61 SE10      30.07S
LAPEER         FAIR      77  58  52 E6        30.09F
MASON          MOSUNNY   79  66  65 SE6       30.07F
MONROE         SUNNY     77  63  62 SE8       30.08S
MT. CLEMENS    MOSUNNY   75  61  61 E7        30.08F
PONTIAC        MOSUNNY   76  59  55 SE9       30.08S
PORT HOPE        N/A     70  65  84 E9        30.10S
PORT HURON     SUNNY     77  57  50 CALM      30.09F
TRI CITIES     PTSUNNY   76  61  59 E7        30.09S
MIDLAND        CLOUDY    76  59  55 SE6       30.08S
TROY           MOSUNNY   78  54  43 E8        30.10F
SAGINAW HB     SUNNY     77  59  53 SE7       30.08S
$$
MIZ043>046-050>051-056>058-064>065-071>073-077>080-161700-
SOUTHWEST LOWER MICHIGAN

CITY           SKY/WX    TMP DP  RH WIND       PRES   REMARKS
BATTLE CREEK   SUNNY     80  67  64 VRB5      30.06S
BENTON HARBOR  SUNNY     84  64  50 SE6       30.01F
BIG RAPIDS     PTSUNNY   74  62  66 E12       30.05F
COLDWATER      PTSUNNY   80  66  62 SE7       30.06S
FREMONT        FAIR      78  63  60 S7        30.03F
HOLLAND        PTSUNNY   79  65  62 S5        30.03F
GRAND RAPIDS   MOSUNNY   81  66  60 VRB6      30.04F
IONIA          FAIR      78  66  65 SE5       30.05F
KALAMAZOO      SUNNY     82  64  54 S8        30.04F
LUDINGTON      SUNNY     73  61  67 SW5       30.02F
MARSHALL       SUNNY     79  65  63 S5        30.06S
MOUNT PLEASANT MOSUNNY   77  58  51 E10       30.06F
MUSKEGON       MOSUNNY   81  61  50 VRB5      30.03F
SOUTH HAVEN    SUNNY     82  67  59 SE5       30.02S
$$
MIZ016>042-161700-
NORTHERN LOWER MICHIGAN

CITY           SKY/WX    TMP DP  RH WIND       PRES   REMARKS
ALPENA         PTSUNNY   70  61  73 SE10      30.12F
BEAVER ISLAND  SUNNY     72  62  70 E8        30.07F
BELLAIRE       MOSUNNY   75  60  58 E3        30.05F
CADILLAC       MOSUNNY   76  59  55 SE7       30.07F
CHARLEVOIX     SUNNY     73  62  67 E9        30.09F
FRANKFORT      SUNNY     76  64  65 E5        30.03F
GAYLORD        SUNNY     70  57  63 S9        30.10F
GRAYLING       MOSUNNY   72  58  61 SE8       30.10F
HARBOR SPRINGS PTSUNNY   72  60  67 E10       30.08F
HOUGHTON LAKE  MOSUNNY   73  60  63 SE7       30.10S
OSCODA         CLOUDY    71  64  79 SE6       30.11S
PELLSTON       MOSUNNY   72  61  68 E7        30.09F
ROGERS CITY    PTSUNNY   71  60  70 SE7       30.12F
TRAVERSE CITY  PTSUNNY   76  62  62 VRB6      30.03F
$$
MIZ007>008-015-161700-
EASTERN UPPER MICHIGAN

CITY           SKY/WX    TMP DP  RH WIND       PRES   REMARKS
KINROSS        PTSUNNY   70  59  68 SE10      30.11F
MACKINAC ISLAN PTSUNNY   67  61  81 E12G17    30.10S
NEWBERRY       PTSUNNY   68  61  78 SE6       30.08F
S. S. MARIE    MOSUNNY   68  58  70 SE10      30.11F
MUNISING         N/A     68  63  84 N6        30.06F
$$
MIZ004>006-011>014-085-161700-
CENTRAL UPPER MICHIGAN

CITY           SKY/WX    TMP DP  RH WIND       PRES   REMARKS
MANISTIQUE     MOSUNNY   69  59  71 SE7       30.07F
ESCANABA       SUNNY     68  60  75 E5        30.06F
MENOMINEE      MOSUNNY   68  61  78 E12       30.05F
SAWYER-GWINN   SUNNY     61  59  94 SE3       30.08F
$$
MIZ001>003-009>011-084-161700-
WESTERN UPPER MICHIGAN

CITY           SKY/WX    TMP DP  RH WIND       PRES   REMARKS
IRON MOUNTAIN  MOSUNNY   64  56  75 S3        30.06F
HOUGHTON       SUNNY     67  57  70 E9        30.05S
COPPER HARBOR    N/A     66  55  67 VRB5      30.05S
IRONWOOD       SUNNY     70  59  68 S9        30.02F
$$

ABBREVIATIONS USED IN REMARKS
   TC - TEMPERATURE IN CELSIUS
  WCI - WIND CHILL INDEX
   HX - HEAT INDEX
  VSB - VISIBILITY




USA.gov is the U.S. government's official web portal to all federal, state and local government web resources and services.